TimeEET,TemperatureF,Dew PointF,Humidity,Sea Level PressureIn,VisibilityMPH,Wind Direction,Wind SpeedMPH,Gust SpeedMPH,PrecipitationIn,Events,Conditions,WindDirDegrees,DateUTC
12:50 AM,33.8,32.0,93,29.89,6.2,Calm,Calm,-,N/A,,Scattered Clouds,0,2012-12-07 22:50:00
1:50 AM,35.6,33.8,93,29.89,6.2,Calm,Calm,-,N/A,,Scattered Clouds,0,2012-12-07 23:50:00
2:00 AM,35,33,91,,12,Calm,Calm,,,,Partly Cloudy,,2012-12-08 00:00:00
2:50 AM,33.8,33.8,100,29.89,6.2,Calm,Calm,-,N/A,,Scattered Clouds,0,2012-12-08 00:50:00
3:50 AM,32.0,32.0,100,29.89,6.2,Calm,Calm,-,N/A,,Scattered Clouds,0,2012-12-08 01:50:00
4:50 AM,32.0,32.0,100,29.89,6.2,NW,2.3,-,N/A,,Scattered Clouds,320,2012-12-08 02:50:00
5:50 AM,33.8,32.0,93,29.89,6.2,Calm,Calm,-,N/A,,Scattered Clouds,0,2012-12-08 03:50:00
6:50 AM,32.0,32.0,100,29.92,6.2,Variable,2.3,-,N/A,,Mostly Cloudy,0,2012-12-08 04:50:00
7:50 AM,33.8,33.8,100,29.95,6.2,Calm,Calm,-,N/A,,Mostly Cloudy,0,2012-12-08 05:50:00
8:00 AM,34,33,97,,6,Calm,Calm,,,,Partly Cloudy,,2012-12-08 06:00:00
8:50 AM,37.4,33.8,87,29.95,6.2,Calm,Calm,-,N/A,,Mostly Cloudy,0,2012-12-08 06:50:00
9:50 AM,39.2,35.6,87,29.98,6.2,Variable,2.3,-,N/A,,Mostly Cloudy,0,2012-12-08 07:50:00
10:50 AM,42.8,37.4,81,29.95,6.2,Variable,1.2,-,N/A,,Mostly Cloudy,0,2012-12-08 08:50:00
11:50 AM,42.8,37.4,81,29.95,6.2,NNW,4.6,-,N/A,,Mostly Cloudy,330,2012-12-08 09:50:00
12:50 PM,41.0,37.4,87,29.98,6.2,WNW,12.7,-,N/A,Rain,Light Rain,300,2012-12-08 10:50:00
1:50 PM,41.0,35.6,81,30.01,6.2,WNW,8.1,-,N/A,,Mostly Cloudy,300,2012-12-08 11:50:00
2:00 PM,41,35,73,,6,WNW,8.1,,,Rain,Light Rain,300,2012-12-08 12:00:00
2:50 PM,41.0,33.8,76,30.04,6.2,West,10.4,-,N/A,,Mostly Cloudy,280,2012-12-08 12:50:00
3:50 PM,41.0,33.8,76,30.04,6.2,WNW,9.2,-,N/A,,Mostly Cloudy,300,2012-12-08 13:50:00
4:50 PM,39.2,32.0,75,30.06,6.2,NW,6.9,-,N/A,,Mostly Cloudy,310,2012-12-08 14:50:00
5:50 PM,37.4,32.0,81,30.09,6.2,NW,4.6,-,N/A,,Mostly Cloudy,310,2012-12-08 15:50:00
6:50 PM,35.6,32.0,87,30.09,6.2,Variable,1.2,-,N/A,,Mostly Cloudy,0,2012-12-08 16:50:00
7:50 PM,33.8,28.4,81,30.12,6.2,NW,4.6,-,N/A,,Scattered Clouds,310,2012-12-08 17:50:00
8:00 PM,34,28,70,,6,NW,4.6,,,,Partly Cloudy,310,2012-12-08 18:00:00
8:50 PM,33.8,28.4,81,30.12,6.2,Variable,1.2,-,N/A,,Scattered Clouds,0,2012-12-08 18:50:00
9:50 PM,30.2,28.4,93,30.15,6.2,Variable,1.2,-,N/A,,Scattered Clouds,0,2012-12-08 19:50:00
10:50 PM,28.4,28.4,100,30.18,6.2,East,4.6,-,N/A,,Scattered Clouds,90,2012-12-08 20:50:00
11:50 PM,30.2,28.4,93,30.18,6.2,Variable,1.2,-,N/A,,Scattered Clouds,0,2012-12-08 21:50:00